Change the Weather History Date:

Tuesday, July 2, 2013

  Actual Average Record
Temperature  
Mean Temperature 78 °F -  
Max Temperature 98 °F 81 °F 98 °F (2013)
Min Temperature 57 °F 54 °F 44 °F (2002)
Cooling Degree Days 12    
Growing Degree Days 28 (Base 50)    
Moisture  
Dew Point 61 °F    
Average Humidity 58    
Maximum Humidity 100    
Minimum Humidity 24    
Precipitation  
Precipitation 0.98 in 0.06 in - ()
Sea Level Pressure  
Sea Level Pressure 29.95 in    
Wind  
Wind Speed 5 mph ()    
Max Wind Speed 14 mph    
Max Gust Speed 18 mph    
Visibility 15.0 miles    
Events      
Averages and records for this station are not official NWS values.
T = Trace of Precipitation, MM = Missing Value Source: Averaged Metar Reports

Daily Weather History Graph

Daily Weather History Graph

Search for Another Location

Airport or City:

Trip Planner

Search our weather history database for the weather conditions in past years. The results will help you decide how hot, cold, wet, or windy it might be!

Date:

Astronomy

Jul. 02, 2013 Rise Set
Actual Time 4:49 AM PDT 8:59 PM PDT
Civil Twilight 4:07 AM PDT 9:41 PM PDT
Nautical Twilight 3:06 AM PDT 10:42 PM PDT
Astronomical Twilight 1:27 AM PDT 12:22 AM PDT
Moon 1:11 AM PDT (7/2) 4:04 PM PDT (7/2)
Length of Visible Light 17h 34m
Length of Day
16h 09m
Waning Crescent, 25% of the Moon is Illuminated
Jul 2
Waning Crescent
Jul 8
New
Jul 15
First Quarter
Jul 22
Full
Jul 29
Last Quarter

Hourly Weather History & Observations

Time (PDT) Temp. Heat Index Dew Point Humidity Pressure Visibility Wind Dir Wind Speed Gust Speed Precip Events Conditions
5:00 AM 60 °F - 60 °F 98% 30.19 in - ESE 4.6 mph - -  
6:00 AM 60.8 °F - 59.0 °F 94% 30.01 in 15.0 mi ESE 3.5 mph - N/A   Clear
7:00 AM 64.4 °F - 60.8 °F 88% 30.01 in 15.0 mi Variable 2.3 mph - N/A   Clear
8:00 AM 69.8 °F - 60.8 °F 73% 30.01 in 15.0 mi Variable 2.3 mph - N/A   Clear
9:00 AM 73.4 °F - 60.8 °F 65% 30.00 in 15.0 mi WNW 2.3 mph - N/A   Clear
10:00 AM 78.8 °F - 62.6 °F 57% 29.98 in 15.0 mi West 2.3 mph - N/A   Clear
11:00 AM 62 °F - 62 °F 98% 30.20 in - SSE 9.2 mph - -  
11:00 AM 82.4 °F 83.4 °F 62.6 °F 51% 29.96 in 15.0 mi Variable 2.3 mph - N/A   Clear
12:00 PM 87.8 °F 87.6 °F 60.8 °F 40% 29.94 in 15.0 mi SSW 4.6 mph - N/A   Clear
1:00 PM 91.4 °F 93.2 °F 64.4 °F 41% 29.91 in 15.0 mi SSW 5.8 mph - N/A   Partly Cloudy
2:00 PM 96.8 °F 99.0 °F 64.4 °F 34% 29.87 in 15.0 mi South 10.4 mph - N/A   Partly Cloudy
3:00 PM 100.4 °F 102.4 °F 62.6 °F 29% 29.84 in 15.0 mi SSW 13.8 mph - N/A   Partly Cloudy
4:00 PM 102.2 °F 102.4 °F 59.0 °F 24% 29.82 in 15.0 mi SSW 11.5 mph 18.4 mph N/A   Partly Cloudy
5:00 PM 60 °F - 60 °F 100% 30.19 in - SSE 5.8 mph - -  
5:00 PM 98.6 °F 100.0 °F 62.6 °F 30% 29.81 in 15.0 mi South 9.2 mph - N/A   Partly Cloudy
6:00 PM 96.8 °F 98.0 °F 62.6 °F 32% 29.79 in 15.0 mi South 8.1 mph - N/A   Partly Cloudy
7:00 PM 96.8 °F 97.1 °F 60.8 °F 30% 29.78 in 15.0 mi South 6.9 mph - N/A   Partly Cloudy
8:00 PM 89.6 °F 89.5 °F 60.8 °F 38% 29.78 in 15.0 mi SE 5.8 mph - N/A   Partly Cloudy
9:00 PM 87.8 °F 86.5 °F 57.2 °F 35% 29.78 in 15.0 mi SSE 8.1 mph - N/A   Partly Cloudy
11:00 PM 58 °F - 58 °F 98% 30.16 in - South 4.6 mph - -